[[{"header":{"parameterUnit":"m.s-1","parameterCategory":1,"la1":30.2991,"la2":30.254,"lo1":-89.0895,"lo2":-89.0444,"dy":0.0017,"dx":0.0017,"nx":28,"ny":28,"refTime":"2025-11-25T09:00:00:Z","depth":0,"parameterNumber":2,"parameterNumberName":"U-component_of_WINDS"},"data":[0,0,0,0,0,0,0,0,0,0,0,0,0,0,0,0,0,0,0,0,0,0,0,0,0,0,0,0,0,0,0,0,0,0,0,0,0,0,0,0,0,0,0,0,0,0,0,0,0,0,0,0,0,0,0,0,0,0,0.5012,0.5012,0,0.4993,0.4992,0.4992,0.5004,0.5005,0.5006,0.5006,0.4983,0.4982,0.4981,0,0,0,0,0,0,0,0,0,0,0,0,0,0.5057,0.5057,0.5012,0.5012,0.5012,0.4993,0.4992,0.4992,0.5004,0.5005,0.5006,0.5006,0.4983,0.4982,0.498,0,0,0,0,0,0,0,0,0,0,0,0,0,0.5038,0.5056,0.5012,0.5015,0.5016,0.4993,0.4992,0.4992,0.5004,0.5005,0.5006,0.5007,0.4984,0.4982,0.498,0.4952,0,0,0.4975,0.4974,0,0,0,0,0,0,0,0,0.5039,0.5036,0.5015,0.5015,0.5015,0.5002,0.5,0.4978,0.5004,0.5008,0.5006,0.5007,0.4988,0.4986,0.498,0.4951,0.495,0.4975,0.4974,0.4973,0.4972,0,0,0,0,0,0,0,0.504,0.5037,0.5004,0.5015,0.5015,0.5017,0.5015,0.4996,0.4993,0.5008,0.5009,0.5007,0.4988,0.4982,0.498,0.4949,0.4975,0.4973,0.4972,0.4971,0.4896,0.4895,0,0,0,0,0,0,0.5042,0.5038,0.5005,0.5004,0.503,0.5016,0.5014,0.5005,0.4994,0.4993,0.5006,0.5007,0.4985,0.4982,0.4979,0.4945,0.4973,0.4971,0.497,0.4897,0.4896,0.4895,0,0,0,0,0,0,0.5043,0.5039,0.5006,0.5021,0.5017,0.5014,0.5004,0.5004,0.4998,0.4992,0.4992,0.5,0.4985,0.4982,0.4959,0.4945,0.497,0.4969,0.4898,0.4897,0.4896,0.4877,0,0,0,0,0,0,0.5044,0.5039,0.5028,0.5021,0.5016,0.4986,0.5004,0.5003,0.4996,0.4997,0.4987,0.4986,0.4986,0.4962,0.4957,0.4943,0.4968,0.49,0.4898,0.4896,0.4879,0.4875,0.4872,0,0,0,0,0,0.5045,0.5023,0.5028,0.5024,0.5003,0.4985,0.4983,0.4984,0.4994,0.4983,0.498,0.4986,0.4948,0.4959,0.4954,0.4939,0.49,0.4898,0.4896,0.4881,0.4876,0.4872,0,0,0,0,0,0,0.5027,0.5022,0.5027,0.5002,0.4994,0.4988,0.4974,0.4979,0.4967,0.4969,0.4971,0.4968,0.4945,0.494,0.4953,0.4912,0.4925,0.4922,0.4915,0.4911,0.4908,0.4908,0.4966,0,0,0,0,0,0.5021,0.5007,0.5003,0.4981,0.4977,0.4976,0.4969,0.4971,0.4962,0.4959,0.4953,0.4944,0.493,0.4921,0.4907,0.4879,0.4877,0.4867,0.4863,0.4861,0.4857,0.4842,0.4838,0.4888,0.4888,0.4888,0,0,0.5006,0.5002,0.4993,0.4978,0.4972,0.4957,0.4973,0.4957,0.4946,0.4956,0.4934,0.493,0.492,0.4895,0.4884,0.489,0.4843,0.4858,0.4856,0.4854,0.484,0.4835,0.4831,0.4887,0.4887,0.4887,0,0,0.4972,0.4967,0.4949,0.4943,0.4935,0.4935,0.4931,0.4924,0.4922,0.4901,0.4908,0.4895,0.4871,0.4863,0.4856,0.4822,0.4827,0.4818,0.4799,0.4785,0.4781,0.4777,0.4764,0.476,0.4815,0.4815,0.4815,0,0.4954,0.4933,0.4938,0.4922,0.4915,0.4925,0.4906,0.49,0.4888,0.4882,0.4891,0.4862,0.4855,0.4829,0.4821,0.4815,0.4809,0.4818,0.4781,0.4778,0.4774,0.4762,0.4757,0.4814,0.4814,0.4814,0.4814,0,0.4912,0.4898,0.4884,0.4873,0.4865,0.4847,0.4849,0.484,0.4843,0.4842,0.4821,0.4815,0.48,0.4795,0.4797,0.4769,0.4773,0.4781,0.4795,0.4768,0.4757,0.4752,0.4812,0.4813,0.4813,0.4813,0,0,0.4863,0.4857,0.4852,0.4847,0.484,0.4829,0.4812,0.48,0.4792,0.4784,0.4769,0.475,0.4758,0.475,0.4752,0.474,0.4713,0.475,0.475,0.4742,0.4681,0.4674,0.4668,0.4717,0.4717,0.4716,0.4681,0,0.4828,0.4799,0.4804,0.4776,0.4763,0.4774,0.4759,0.4753,0.4752,0.4741,0.474,0.4725,0.4738,0.4733,0.4722,0.4719,0.47,0.4722,0.4703,0.4702,0.4703,0.4662,0.4654,0.4622,0.4677,0.4676,0.4676,0,0.4782,0.4774,0.4745,0.4741,0.4736,0.4723,0.4713,0.4702,0.4695,0.4696,0.4688,0.4693,0.4676,0.4692,0.4668,0.4683,0.4676,0.4673,0.4672,0.4669,0.4686,0.4657,0.4612,0.4606,0.4669,0.4669,0.467,0,0.4748,0.473,0.4711,0.4707,0.4702,0.4693,0.469,0.4685,0.4678,0.4669,0.4664,0.4653,0.4646,0.4637,0.4639,0.465,0.4615,0.4631,0.4614,0.4613,0.4604,0.4604,0.4555,0.4602,0.4602,0.4602,0.4602,0,0.4708,0.4689,0.4696,0.4683,0.4664,0.467,0.465,0.4648,0.4644,0.4631,0.464,0.4628,0.4632,0.462,0.4622,0.4602,0.4599,0.4598,0.4598,0.4596,0.4596,0.459,0.4592,0.4601,0.4601,0.4601,0.4601,0,0.4665,0.4669,0.4649,0.4647,0.4646,0.4631,0.4629,0.4618,0.4619,0.4603,0.46,0.4601,0.4587,0.4589,0.4574,0.4575,0.455,0.4553,0.4552,0.4552,0.4535,0.4536,0.448,0.4472,0.4525,0.4524,0.4524,0,0.4638,0.4625,0.4622,0.4615,0.4612,0.4601,0.4594,0.46,0.4593,0.4585,0.4575,0.4563,0.4553,0.4531,0.453,0.4518,0.4521,0.4502,0.4519,0.4518,0.452,0.452,0.4518,0.4498,0.4497,0.4497,0.4497,0,0.4589,0.4592,0.4583,0.4574,0.4567,0.456,0.4554,0.4547,0.4553,0.4544,0.4532,0.4524,0.451,0.4498,0.4487,0.4484,0.4491,0.4492,0.4487,0.4484,0.4483,0.4483,0.4541,0.4492,0.4493,0.4493,0.4493,0.4494,0.4553,0.4542,0.4539,0.4528,0.4525,0.452,0.4509,0.451,0.45,0.4489,0.4493,0.4479,0.4474,0.4461,0.4457,0.4445,0.4452,0.4445,0.4443,0.4441,0.4439,0.4487,0.4444,0.4444,0.4444,0.4444,0.4444,0,0.4504,0.4503,0.4493,0.4486,0.4478,0.4487,0.4482,0.4474,0.4461,0.4457,0.4448,0.4434,0.4422,0.4421,0.4411,0.4402,0.4404,0.4398,0.4398,0.4397,0.4434,0.4439,0.4396,0.4396,0.4396,0.4396,0.4396,0.4396,0.4477,0.4458,0.4462,0.4442,0.4441,0.4428,0.4424,0.4419,0.4416,0.44,0.4391,0.4391,0.4388,0.4378,0.4368,0.4368,0.4363,0.4355,0.4356,0.439,0.4395,0.4399,0.4403,0.4354,0.4354,0.432,0.432,0.432]},{"header":{"parameterUnit":"m.s-1","parameterCategory":1,"la1":30.2991,"la2":30.254,"lo1":-89.0895,"lo2":-89.0444,"dy":0.0017,"dx":0.0017,"nx":28,"ny":28,"refTime":"2025-11-25T09:00:00:Z","depth":0,"parameterNumber":3,"parameterNumberName":"V-component_of_WINDS"},"data":[0,0,0,0,0,0,0,0,0,0,0,0,0,0,0,0,0,0,0,0,0,0,0,0,0,0,0,0,0,0,0,0,0,0,0,0,0,0,0,0,0,0,0,0,0,0,0,0,0,0,0,0,0,0,0,0,0,0,-7.4565,-7.4566,0,-7.4669,-7.467,-7.4672,-7.4561,-7.4557,-7.4553,-7.4549,-7.4649,-7.4656,-7.4662,0,0,0,0,0,0,0,0,0,0,0,0,0,-7.4264,-7.427,-7.4565,-7.4566,-7.4568,-7.4669,-7.4671,-7.4672,-7.4562,-7.4557,-7.4552,-7.4547,-7.4647,-7.4655,-7.4663,0,0,0,0,0,0,0,0,0,0,0,0,0,-7.4384,-7.4272,-7.4565,-7.4525,-7.4523,-7.4669,-7.4671,-7.4672,-7.4563,-7.4557,-7.455,-7.4544,-7.4644,-7.4654,-7.4664,-7.4852,0,0,-7.4694,-7.4699,0,0,0,0,0,0,0,0,-7.4378,-7.4395,-7.453,-7.4528,-7.4526,-7.4596,-7.4601,-7.4732,-7.4565,-7.4548,-7.4549,-7.4541,-7.4636,-7.4646,-7.468,-7.4857,-7.4861,-7.4695,-7.4701,-7.4705,-7.4708,0,0,0,0,0,0,0,-7.4369,-7.439,-7.4606,-7.4532,-7.4529,-7.45,-7.451,-7.4626,-7.4626,-7.4549,-7.4541,-7.4555,-7.4634,-7.467,-7.4681,-7.4863,-7.4695,-7.4704,-7.471,-7.4714,-7.52,-7.5207,0,0,0,0,0,0,-7.4366,-7.4384,-7.4603,-7.4609,-7.4435,-7.4511,-7.4522,-7.458,-7.4624,-7.4625,-7.456,-7.4549,-7.4657,-7.467,-7.4684,-7.4908,-7.4705,-7.4715,-7.472,-7.5193,-7.5202,-7.5209,0,0,0,0,0,0,-7.436,-7.4387,-7.4598,-7.4495,-7.4519,-7.4523,-7.4588,-7.4585,-7.4622,-7.4634,-7.4632,-7.4598,-7.4652,-7.467,-7.4812,-7.491,-7.4719,-7.4728,-7.5185,-7.5196,-7.5205,-7.5358,0,0,0,0,0,0,-7.4352,-7.4386,-7.4459,-7.4497,-7.4525,-7.4727,-7.4594,-7.4592,-7.464,-7.4627,-7.4669,-7.4669,-7.4649,-7.4798,-7.4822,-7.4921,-7.4736,-7.5176,-7.519,-7.5202,-7.5344,-7.5372,-7.5397,0,0,0,0,0,-7.4342,-7.4496,-7.4463,-7.449,-7.4617,-7.4732,-7.4748,-7.4723,-7.4648,-7.4721,-7.4728,-7.4668,-7.4896,-7.4813,-7.4839,-7.4943,-7.517,-7.5186,-7.5201,-7.5332,-7.5367,-7.5396,0,0,0,0,0,0,-7.4466,-7.45,-7.4464,-7.4635,-7.4682,-7.4714,-7.4804,-7.476,-7.4827,-7.4812,-7.4775,-7.4786,-7.4937,-7.4953,-7.4861,-7.5127,-7.502,-7.5042,-7.5111,-7.5144,-7.517,-7.5162,-7.4744,0,0,0,0,0,-7.4514,-7.4607,-7.463,-7.4779,-7.4805,-7.4801,-7.485,-7.4827,-7.4873,-7.4892,-7.4909,-7.4955,-7.5036,-7.5091,-7.5166,-7.5346,-7.5353,-7.543,-7.5456,-7.5477,-7.5496,-7.5593,-7.5627,-7.5261,-7.526,-7.526,0,0,-7.4612,-7.4643,-7.4703,-7.4805,-7.4839,-7.4934,-7.4818,-7.4924,-7.4994,-7.4907,-7.5043,-7.5058,-7.5105,-7.5267,-7.5339,-7.5286,-7.5599,-7.5497,-7.5514,-7.5522,-7.5612,-7.5647,-7.5678,-7.5271,-7.5269,-7.5268,0,0,-7.4841,-7.4874,-7.5002,-7.5039,-7.5092,-7.5089,-7.512,-7.5158,-7.5166,-7.5302,-7.5239,-7.532,-7.5462,-7.5499,-7.5536,-7.5781,-7.5728,-7.5806,-7.5943,-7.6037,-7.6066,-7.6091,-7.6179,-7.6211,-7.5825,-7.5825,-7.5826,0,-7.4957,-7.5101,-7.5073,-7.5184,-7.523,-7.5159,-7.5287,-7.5323,-7.5398,-7.5431,-7.537,-7.5547,-7.5574,-7.5744,-7.5804,-7.5836,-7.5869,-7.5801,-7.6064,-7.609,-7.6113,-7.6196,-7.6229,-7.5834,-7.5833,-7.5832,-7.5832,0,-7.524,-7.534,-7.5437,-7.5514,-7.5571,-7.569,-7.5679,-7.574,-7.5712,-7.5714,-7.5853,-7.5884,-7.5965,-7.6003,-7.5975,-7.6169,-7.6135,-7.607,-7.5962,-7.6158,-7.6235,-7.6266,-7.5848,-7.5844,-7.5842,-7.5839,0,0,-7.5549,-7.5611,-7.5647,-7.5681,-7.5735,-7.5811,-7.5927,-7.6008,-7.6061,-7.6115,-7.621,-7.6332,-7.6274,-7.6316,-7.6292,-7.6375,-7.6567,-7.63,-7.63,-7.6349,-7.6782,-7.6831,-7.6869,-7.6532,-7.6538,-7.6543,-7.6779,0,-7.578,-7.5984,-7.5963,-7.6155,-7.6248,-7.6181,-7.6281,-7.6324,-7.633,-7.6407,-7.6412,-7.65,-7.6415,-7.644,-7.6519,-7.6527,-7.6654,-7.651,-7.6619,-7.6624,-7.661,-7.6909,-7.696,-7.7182,-7.6809,-7.6814,-7.6817,0,-7.6077,-7.6144,-7.6347,-7.6388,-7.6426,-7.6517,-7.6591,-7.6666,-7.6713,-7.6711,-7.676,-7.6721,-7.6836,-7.6725,-7.6882,-7.6785,-7.6828,-7.6838,-7.6846,-7.6856,-7.6733,-7.6927,-7.7251,-7.7285,-7.6865,-7.6861,-7.6857,0,-7.6283,-7.6424,-7.6564,-7.6596,-7.6647,-7.6712,-7.6736,-7.6777,-7.6828,-7.6891,-7.6923,-7.6998,-7.704,-7.7098,-7.708,-7.7001,-7.7241,-7.7129,-7.7241,-7.7242,-7.7295,-7.7292,-7.7632,-7.7323,-7.7322,-7.7321,-7.7321,0,-7.6543,-7.667,-7.6658,-7.6744,-7.6884,-7.6858,-7.6996,-7.7011,-7.7048,-7.7135,-7.708,-7.7162,-7.7134,-7.7214,-7.72,-7.7332,-7.7351,-7.7351,-7.7346,-7.7357,-7.7357,-7.7385,-7.7369,-7.733,-7.7328,-7.7327,-7.7325,0,-7.6798,-7.6795,-7.6943,-7.698,-7.6992,-7.7094,-7.7124,-7.7204,-7.7206,-7.7316,-7.734,-7.7342,-7.7434,-7.7422,-7.7523,-7.7514,-7.7678,-7.7654,-7.7663,-7.7658,-7.7772,-7.7762,-7.8142,-7.819,-7.785,-7.7853,-7.7856,0,-7.6964,-7.7061,-7.7109,-7.7165,-7.7194,-7.7284,-7.7336,-7.7313,-7.7369,-7.7431,-7.7504,-7.7591,-7.7659,-7.7808,-7.7817,-7.7894,-7.7871,-7.7999,-7.7882,-7.789,-7.7874,-7.7869,-7.7878,-7.8022,-7.8026,-7.8029,-7.8032,0,-7.7261,-7.7255,-7.7334,-7.7413,-7.7478,-7.7538,-7.7592,-7.764,-7.7622,-7.7688,-7.7782,-7.7836,-7.794,-7.8027,-7.81,-7.8121,-7.8075,-7.8069,-7.8099,-7.8111,-7.8113,-7.8114,-7.7727,-7.806,-7.8057,-7.8055,-7.8054,-7.8053,-7.7476,-7.7559,-7.7607,-7.7697,-7.7736,-7.7789,-7.7867,-7.7879,-7.7958,-7.8043,-7.8024,-7.813,-7.8174,-7.8268,-7.8297,-7.8379,-7.8332,-7.8375,-7.8387,-7.8398,-7.8412,-7.81,-7.8392,-7.8391,-7.839,-7.8389,-7.8389,0,-7.777,-7.7798,-7.7881,-7.7961,-7.8031,-7.7983,-7.8041,-7.8102,-7.8198,-7.8244,-7.8313,-7.8421,-7.8505,-7.8522,-7.8602,-7.8664,-7.8644,-7.8685,-7.8681,-7.8687,-7.8449,-7.8415,-7.87,-7.87,-7.87,-7.87,-7.87,-7.87,-7.7931,-7.807,-7.807,-7.8227,-7.8253,-7.8359,-7.8396,-7.8444,-7.8481,-7.8606,-7.8676,-7.8687,-7.8721,-7.8803,-7.8878,-7.888,-7.8912,-7.8963,-7.8957,-7.8734,-7.8703,-7.8674,-7.8642,-7.897,-7.897,-7.9187,-7.9189,-7.9191]}]]